Location: Écuvilly
(49.6505°N, 2.9206°E)
Time: 17:35:43
(UTC+00:00)

BREEZE-M DEB (TANK) - Pass Details

Date: 17 November 2025
Orbit: 284 x 18361 km, 52.5° (Epoch: 10 December)

Event Time Altitude Azimuth Distance (km) Brightness Sun altitude
Rises 17:49:38 0° 242° (WSW) 2,044 7.1 -17.1°
Reaches altitude 10° 17:50:55 10° 240° (WSW) 1,381 6.0 -17.3°
Maximum altitude 17:53:26 78° 155° (SSE) 589 2.8 -17.7°
Enters shadow 17:55:42 31° 72° (ENE) 1,426 4.3 -18.0°
